Wetterdaten: Woche 29.01.07 - 04.02.07 (KW5)
Datum Zeit Temperatur Luftfeuchte Luftdruck Niederschlag
29.01.2007 00:00 1,1 C 75 % 1026 hPa 0,0 l/m
29.01.2007 01:00 1,0 C 75 % 1026 hPa 0,0 l/m
29.01.2007 02:00 1,1 C 76 % 1025 hPa 0,0 l/m
29.01.2007 03:00 1,0 C 78 % 1025 hPa 0,0 l/m
29.01.2007 04:00 0,9 C 78 % 1025 hPa 0,0 l/m
29.01.2007 05:00 0,9 C 78 % 1025 hPa 0,0 l/m
29.01.2007 06:00 0,9 C 78 % 1025 hPa 0,0 l/m
29.01.2007 07:00 0,8 C 79 % 1025 hPa 0,0 l/m
29.01.2007 08:00 0,9 C 78 % 1025 hPa 0,0 l/m
29.01.2007 09:00 1,2 C 76 % 1026 hPa 0,0 l/m
29.01.2007 10:00 1,7 C 73 % 1026 hPa 1,0 l/m
29.01.2007 11:00 2,2 C 69 % 1026 hPa 0,0 l/m
29.01.2007 12:00 2,6 C 68 % 1026 hPa 2,0 l/m
29.01.2007 13:00 3,1 C 67 % 1025 hPa 1,0 l/m
29.01.2007 14:00 3,3 C 67 % 1025 hPa 0,0 l/m
29.01.2007 15:00 3,4 C 68 % 1025 hPa 0,0 l/m
29.01.2007 16:00 3,1 C 70 % 1025 hPa 1,0 l/m
29.01.2007 17:00 2,4 C 74 % 1025 hPa 0,0 l/m
29.01.2007 18:00 2,0 C 78 % 1026 hPa 0,0 l/m
29.01.2007 19:00 2,0 C 78 % 1026 hPa 0,0 l/m
29.01.2007 20:00 1,7 C 80 % 1026 hPa 0,0 l/m
29.01.2007 21:00 1,4 C 83 % 1026 hPa 0,0 l/m
29.01.2007 22:00 0,8 C 87 % 1025 hPa 0,0 l/m
29.01.2007 23:00 0,1 C 91 % 1025 hPa 0,0 l/m
30.01.2007 00:00 -0,6 C 93 % 1025 hPa 0,0 l/m
30.01.2007 01:00 -1,1 C 94 % 1025 hPa 0,0 l/m
30.01.2007 02:00 -1,6 C 96 % 1025 hPa 0,0 l/m
30.01.2007 03:00 -2,4 C 97 % 1025 hPa 0,0 l/m
30.01.2007 04:00 -3,0 C 97 % 1024 hPa 0,0 l/m
30.01.2007 05:00 -3,5 C 98 % 1025 hPa 0,0 l/m
30.01.2007 06:00 -4,2 C 98 % 1025 hPa 0,0 l/m
30.01.2007 07:00 -4,4 C 98 % 1025 hPa 0,0 l/m
30.01.2007 08:00 -4,2 C 98 % 1025 hPa 0,0 l/m
30.01.2007 09:00 -3,6 C 98 % 1025 hPa 0,0 l/m
30.01.2007 10:00 -1,9 C 98 % 1026 hPa 0,0 l/m
30.01.2007 11:00 0,9 C 95 % 1026 hPa 0,0 l/m
30.01.2007 12:00 3,6 C 74 % 1026 hPa 1,0 l/m
30.01.2007 13:00 4,0 C 68 % 1025 hPa 0,0 l/m
30.01.2007 14:00 3,9 C 67 % 1025 hPa 0,0 l/m
30.01.2007 15:00 3,6 C 68 % 1025 hPa 0,0 l/m
30.01.2007 16:00 3,1 C 70 % 1025 hPa 0,0 l/m
30.01.2007 17:00 2,5 C 73 % 1025 hPa 0,0 l/m
30.01.2007 18:00 1,4 C 77 % 1025 hPa 0,0 l/m
30.01.2007 19:00 -0,1 C 83 % 1025 hPa 0,0 l/m
30.01.2007 20:00 -1,0 C 90 % 1025 hPa 0,0 l/m
30.01.2007 21:00 -1,6 C 92 % 1025 hPa 0,0 l/m
30.01.2007 22:00 -1,4 C 96 % 1025 hPa 0,0 l/m
30.01.2007 23:00 -1,4 C 97 % 1025 hPa 0,0 l/m
31.01.2007 00:00 -2,1 C 97 % 1024 hPa 0,0 l/m
31.01.2007 01:00 -2,2 C 98 % 1024 hPa 0,0 l/m
31.01.2007 02:00 -1,9 C 98 % 1024 hPa 0,0 l/m
31.01.2007 03:00 -2,2 C 98 % 1024 hPa 0,0 l/m
31.01.2007 04:00 -2,7 C 98 % 1023 hPa 0,0 l/m
31.01.2007 05:00 -2,5 C 98 % 1023 hPa 0,0 l/m
31.01.2007 06:00 -2,4 C 98 % 1024 hPa 0,0 l/m
31.01.2007 07:00 -2,3 C 98 % 1024 hPa 0,0 l/m
31.01.2007 08:00 -2,4 C 98 % 1024 hPa 0,0 l/m
31.01.2007 09:00 -2,3 C 98 % 1024 hPa 0,0 l/m
31.01.2007 10:00 -1,7 C 98 % 1025 hPa 0,0 l/m
31.01.2007 11:00 -1,0 C 98 % 1024 hPa 0,0 l/m
31.01.2007 12:00 -0,1 C 98 % 1024 hPa 0,0 l/m
31.01.2007 13:00 0,5 C 91 % 1024 hPa 0,0 l/m
31.01.2007 14:00 0,9 C 87 % 1023 hPa 0,0 l/m
31.01.2007 15:00 1,0 C 86 % 1023 hPa 0,0 l/m
31.01.2007 16:00 1,0 C 88 % 1023 hPa 0,0 l/m
31.01.2007 17:00 0,3 C 89 % 1024 hPa 0,0 l/m
31.01.2007 18:00 0,1 C 94 % 1025 hPa 0,0 l/m
31.01.2007 19:00 0,1 C 96 % 1025 hPa 0,0 l/m
31.01.2007 20:00 0,0 C 98 % 1025 hPa 0,0 l/m
31.01.2007 21:00 0,2 C 97 % 1025 hPa 0,0 l/m
31.01.2007 22:00 0,5 C 94 % 1025 hPa 0,0 l/m
31.01.2007 23:00 0,6 C 92 % 1026 hPa 0,0 l/m
01.02.2007 00:00 -0,1 C 96 % 1025 hPa 0,0 l/m
01.02.2007 01:00 -0,1 C 98 % 1025 hPa 0,0 l/m
01.02.2007 02:00 0,2 C 98 % 1025 hPa 0,0 l/m
01.02.2007 03:00 0,3 C 98 % 1026 hPa 0,0 l/m
01.02.2007 04:00 0,3 C 98 % 1026 hPa 0,0 l/m
01.02.2007 05:00 0,1 C 98 % 1026 hPa 0,0 l/m
01.02.2007 06:00 0,1 C 98 % 1026 hPa 0,0 l/m
01.02.2007 07:00 0,2 C 98 % 1027 hPa 0,0 l/m
01.02.2007 08:00 0,3 C 98 % 1028 hPa 0,0 l/m
01.02.2007 09:00 0,3 C 98 % 1028 hPa 0,0 l/m
01.02.2007 10:00 0,6 C 98 % 1028 hPa 0,0 l/m
01.02.2007 11:00 1,1 C 98 % 1029 hPa 0,0 l/m
01.02.2007 12:00 1,4 C 98 % 1029 hPa 0,0 l/m
01.02.2007 13:00 2,0 C 98 % 1029 hPa 0,0 l/m
01.02.2007 14:00 2,5 C 98 % 1028 hPa 0,0 l/m
01.02.2007 15:00 2,9 C 98 % 1028 hPa 0,0 l/m
01.02.2007 16:00 2,7 C 97 % 1029 hPa 0,0 l/m
01.02.2007 17:00 2,4 C 98 % 1029 hPa 0,0 l/m
01.02.2007 18:00 2,0 C 98 % 1030 hPa 0,0 l/m
01.02.2007 19:00 1,7 C 98 % 1030 hPa 0,0 l/m
01.02.2007 20:00 1,5 C 98 % 1030 hPa 0,0 l/m
01.02.2007 21:00 1,2 C 98 % 1030 hPa 0,0 l/m
01.02.2007 22:00 0,9 C 98 % 1030 hPa 0,0 l/m
01.02.2007 23:00 0,8 C 98 % 1030 hPa 0,0 l/m
02.02.2007 00:00 0,8 C 98 % 1030 hPa 0,0 l/m
02.02.2007 01:00 0,4 C 98 % 1030 hPa 0,0 l/m
02.02.2007 02:00 0,3 C 98 % 1030 hPa 0,0 l/m
02.02.2007 03:00 0,1 C 98 % 1030 hPa 0,0 l/m
02.02.2007 04:00 -0,8 C 98 % 1030 hPa 0,0 l/m
02.02.2007 05:00 -1,4 C 98 % 1030 hPa 0,0 l/m
02.02.2007 06:00 -2,2 C 98 % 1030 hPa 0,0 l/m
02.02.2007 07:00 -2,6 C 98 % 1030 hPa 0,0 l/m
02.02.2007 08:00 -2,5 C 98 % 1030 hPa 0,0 l/m
02.02.2007 09:00 -2,0 C 98 % 1031 hPa 0,0 l/m
02.02.2007 10:00 -1,2 C 98 % 1031 hPa 0,0 l/m
02.02.2007 11:00 0,1 C 98 % 1031 hPa 0,0 l/m
02.02.2007 12:00 2,4 C 98 % 1030 hPa 0,0 l/m
02.02.2007 13:00 5,8 C 79 % 1030 hPa 0,0 l/m
02.02.2007 14:00 8,0 C 59 % 1029 hPa 0,0 l/m
02.02.2007 15:00 7,6 C 62 % 1029 hPa 0,0 l/m
02.02.2007 16:00 7,0 C 67 % 1030 hPa 0,0 l/m
02.02.2007 17:00 6,1 C 74 % 1030 hPa 0,0 l/m
02.02.2007 18:00 4,2 C 83 % 1031 hPa 0,0 l/m
02.02.2007 19:00 3,0 C 90 % 1031 hPa 0,0 l/m
02.02.2007 20:00 2,6 C 94 % 1031 hPa 0,0 l/m
02.02.2007 21:00 2,3 C 97 % 1031 hPa 0,0 l/m
02.02.2007 22:00 2,4 C 97 % 1032 hPa 0,0 l/m
02.02.2007 23:00 2,3 C 98 % 1032 hPa 0,0 l/m
03.02.2007 00:00 2,1 C 98 % 1032 hPa 0,0 l/m
03.02.2007 01:00 2,2 C 98 % 1032 hPa 0,0 l/m
03.02.2007 02:00 2,2 C 98 % 1032 hPa 0,0 l/m
03.02.2007 03:00 2,2 C 98 % 1032 hPa 0,0 l/m
03.02.2007 04:00 2,2 C 98 % 1032 hPa 0,0 l/m
03.02.2007 05:00 2,2 C 98 % 1032 hPa 0,0 l/m
03.02.2007 06:00 2,1 C 98 % 1033 hPa 0,0 l/m
03.02.2007 07:00 1,8 C 98 % 1033 hPa 0,0 l/m
03.02.2007 08:00 0,7 C 98 % 1033 hPa 0,0 l/m
03.02.2007 09:00 0,7 C 98 % 1034 hPa 0,0 l/m
03.02.2007 10:00 2,5 C 98 % 1034 hPa 0,0 l/m
03.02.2007 11:00 3,4 C 78 % 1034 hPa 0,0 l/m
03.02.2007 12:00 3,8 C 67 % 1034 hPa 0,0 l/m
03.02.2007 13:00 5,0 C 58 % 1034 hPa 0,0 l/m
03.02.2007 14:00 5,4 C 53 % 1033 hPa 0,0 l/m
03.02.2007 15:00 5,9 C 50 % 1033 hPa 0,0 l/m
03.02.2007 16:00 4,9 C 53 % 1033 hPa 0,0 l/m
03.02.2007 17:00 4,0 C 58 % 1034 hPa 0,0 l/m
03.02.2007 18:00 2,6 C 64 % 1034 hPa 0,0 l/m
03.02.2007 19:00 1,6 C 73 % 1033 hPa 0,0 l/m
03.02.2007 20:00 0,8 C 78 % 1033 hPa 0,0 l/m
03.02.2007 21:00 -0,3 C 83 % 1033 hPa 0,0 l/m
03.02.2007 22:00 -1,0 C 88 % 1033 hPa 0,0 l/m
03.02.2007 23:00 -1,6 C 89 % 1033 hPa 0,0 l/m
04.02.2007 00:00 -2,0 C 91 % 1033 hPa 0,0 l/m
04.02.2007 01:00 -2,2 C 93 % 1032 hPa 0,0 l/m
04.02.2007 02:00 -2,4 C 95 % 1032 hPa 0,0 l/m
04.02.2007 03:00 -2,3 C 97 % 1031 hPa 0,0 l/m
04.02.2007 04:00 -2,3 C 98 % 1031 hPa 0,0 l/m
04.02.2007 05:00 -2,5 C 98 % 1031 hPa 0,0 l/m
04.02.2007 06:00 -2,5 C 98 % 1031 hPa 0,0 l/m
04.02.2007 07:00 -2,6 C 98 % 1032 hPa 0,0 l/m
04.02.2007 08:00 -1,6 C 98 % 1032 hPa 0,0 l/m
04.02.2007 09:00 0,6 C 98 % 1032 hPa 0,0 l/m
04.02.2007 10:00 1,8 C 92 % 1032 hPa 0,0 l/m
04.02.2007 11:00 2,8 C 81 % 1032 hPa 0,0 l/m
04.02.2007 12:00 3,7 C 73 % 1031 hPa 0,0 l/m
04.02.2007 13:00 5,8 C 61 % 1031 hPa 0,0 l/m
04.02.2007 14:00 6,8 C 56 % 1030 hPa 0,0 l/m
04.02.2007 15:00 6,8 C 56 % 1029 hPa 0,0 l/m
04.02.2007 16:00 5,8 C 60 % 1029 hPa 0,0 l/m
04.02.2007 17:00 4,4 C 66 % 1028 hPa 0,0 l/m
04.02.2007 18:00 1,8 C 75 % 1028 hPa 0,0 l/m
04.02.2007 19:00 0,3 C 82 % 1028 hPa 0,0 l/m
04.02.2007 20:00 -0,5 C 88 % 1027 hPa 0,0 l/m
04.02.2007 21:00 -1,0 C 92 % 1027 hPa 0,0 l/m
04.02.2007 22:00 -1,3 C 95 % 1026 hPa 0,0 l/m
04.02.2007 23:00 -1,9 C 95 % 1025 hPa 0,0 l/m
Min-Datum _ 30.01.07 03.02.07 31.01.07 -
_ Min-Zeit 07:05 14:57 01:35 -
Minimum _ -4,5 C 49 % 1023 hPa -
Max-Datum _ 02.02.07 30.01.07 03.02.07 29.01.07
_ Max-Zeit 14:41 04:45 09:05 12:03
Maximum _ 8,4 C 98 % 1034 hPa 2,0 l/m
Durchschnitt _ 0,9 C 88 % 1028 hPa #6,0 l/m

Durchschnitt Minimum Temp.0,6 C
Durchschnitt Maximum Temp.1,2 C